USA 153

Last updated on Fri Jul 10 2026 00:03:01 GMT+0000 (Coordinated Universal Time)

1 26575U 00065A 26189.88263226 -.00000320 00000+0 00000+0 0 9993 2 26575 11.6604 35.2363 0002127 57.3650 286.3943 1.00274420 33141
UTC large
Height (km)
Speed (km/s)
/
Latitude / Longitude
Inclination (degrees)
Orbital Period (minutes)
Azimuth
Elevation
Range (km)
Doppler Factor

Next 0 passes for location: London (51.5072 / 0.1276)

No passes found over London.
USA 153